User: anonymous   Login
Location: Unspecified
(0.0000°N, 0.0000°E)
Time: 02:07:23
(UTC+00:00)
Language:

TBA - TO BE ASSIGNED - Orbit

View from above orbital plane
View from above orbital plane
View from above satellite
View from above satellite

Ground track
Ground track

The orbit is defined by the following mean orbital elements,

1 67778U          26144.93763470 +.00000000 +00000-0 +37241-3 0 00004
2 67778  51.8987 226.0238 0000390 113.1723 246.9280 14.79948335    02
Epoch (UTC): 24 May 2026 22:30:11
Eccentricity: 0.0000390
inclination: 51.8987°
perigee height: 629 km
apogee height: 630 km
right ascension of ascending node: 226.0238°
argument of perigee: 113.1723°
revolutions per day: 14.79948335
mean anomaly at epoch: 246.9280°

The dashed part of the orbit path shows where the satellite is in the earth's shadow,  

DLR